User: anonymous   Login
Location: Unspecified
(0.0000°N, 0.0000°E)
Time: 19:03:45
(UTC+00:00)
Language:

Kosmos-2180 - Orbit

View from above orbital plane
View from above orbital plane
View from above satellite
View from above satellite

Ground track
Ground track

The orbit data is extracted from the following two-line orbital elements,

1 21875U 92008A   19341.52337049  .00000031  00000-0  16312-4 0  9994
2 21875  82.9264 187.6837 0038609 124.0747 298.9049 13.73743114393771
Epoch (UTC): 07 December 2019 12:33:39
Eccentricity: 0.0038609
inclination: 82.9264°
perigee height: 958 km
apogee height: 1014 km
right ascension of ascending node: 187.6837°
argument of perigee: 124.0747°
revolutions per day: 13.73743114
mean anomaly at epoch: 298.9049°
orbit number at epoch: 39377

The dashed part of the orbit path shows where the satellite is in the earth's shadow,  

DLR